Time,TemperatureF,DewpointF,PressureIn,WindDirection,WindDirectionDegrees,WindSpeedMPH,WindSpeedGustMPH,Humidity,HourlyPrecipIn,Conditions,Clouds,dailyrainin,SoftwareType,DateUTC
2013-02-13 00:02:00,36.0,28.0,29.79,NW,311,1.0,9.0,71,0.00,,,0.01,,2013-02-13 05:02:00,
2013-02-13 00:12:00,36.0,28.0,29.80,SW,226,2.0,12.0,71,0.00,,,0.01,,2013-02-13 05:12:00,
2013-02-13 00:22:00,36.0,28.0,29.80,SW,226,2.0,12.0,71,0.00,,,0.01,,2013-02-13 05:22:00,
2013-02-13 00:32:00,36.0,27.0,29.79,SSE,163,5.0,10.0,70,0.00,,,0.01,,2013-02-13 05:32:00,
2013-02-13 00:42:00,36.0,27.0,29.79,SSE,163,5.0,10.0,70,0.00,,,0.01,,2013-02-13 05:42:00,
2013-02-13 00:52:00,36.0,27.0,29.80,WSW,248,4.0,13.0,70,0.00,,,0.01,,2013-02-13 05:52:00,
2013-02-13 01:02:00,36.0,27.0,29.80,West,269,4.0,10.0,70,0.00,,,0.01,,2013-02-13 06:02:00,
2013-02-13 01:11:00,36.0,27.0,29.80,WNW,289,5.0,13.0,70,0.00,,,0.01,,2013-02-13 06:11:00,
2013-02-13 01:21:00,36.0,27.0,29.80,WNW,289,5.0,13.0,70,0.00,,,0.01,,2013-02-13 06:21:00,
2013-02-13 01:32:00,36.0,27.0,29.80,NNW,340,5.0,11.0,70,0.00,,,0.01,,2013-02-13 06:32:00,
2013-02-13 01:42:00,35.0,27.0,29.79,WSW,246,2.0,10.0,71,0.00,,,0.01,,2013-02-13 06:42:00,
2013-02-13 01:52:00,35.0,27.0,29.79,WSW,246,2.0,10.0,71,0.00,,,0.01,,2013-02-13 06:52:00,
2013-02-13 02:02:00,35.0,27.0,29.79,WSW,242,3.0,8.0,71,0.00,,,0.01,,2013-02-13 07:02:00,
2013-02-13 02:11:00,35.0,27.0,29.79,WSW,253,3.0,7.0,72,0.00,,,0.01,,2013-02-13 07:11:00,
2013-02-13 02:22:00,35.0,27.0,29.79,WSW,253,3.0,7.0,72,0.00,,,0.01,,2013-02-13 07:22:00,
2013-02-13 02:32:00,35.0,27.0,29.79,SSW,208,4.0,7.0,72,0.00,,,0.01,,2013-02-13 07:32:00,
2013-02-13 02:42:00,35.0,27.0,29.79,SSW,208,4.0,7.0,72,0.00,,,0.01,,2013-02-13 07:42:00,
2013-02-13 02:52:00,34.0,26.0,29.79,SSW,205,2.0,6.0,73,0.00,,,0.01,,2013-02-13 07:52:00,
2013-02-13 03:01:00,34.0,26.0,29.79,WSW,238,3.0,6.0,73,0.00,,,0.01,,2013-02-13 08:01:00,
2013-02-13 03:11:00,34.0,26.0,29.79,WSW,238,3.0,6.0,73,0.00,,,0.01,,2013-02-13 08:11:00,
2013-02-13 03:21:00,33.0,25.0,29.79,SSW,212,1.0,4.0,73,0.00,,,0.01,,2013-02-13 08:21:00,
2013-02-13 03:32:00,33.0,26.0,29.80,SSE,160,2.0,5.0,74,0.00,,,0.00,,2013-02-13 08:32:00,
2013-02-13 03:43:00,33.0,26.0,29.80,SSE,160,2.0,5.0,74,0.00,,,0.00,,2013-02-13 08:43:00,
2013-02-13 03:52:00,33.0,26.0,29.80,SW,232,3.0,5.0,74,0.00,,,0.00,,2013-02-13 08:52:00,
2013-02-13 04:02:00,33.0,26.0,29.81,SE,146,3.0,6.0,74,0.00,,,0.00,,2013-02-13 09:02:00,
2013-02-13 04:11:00,33.0,26.0,29.81,SE,146,3.0,6.0,74,0.00,,,0.00,,2013-02-13 09:11:00,
2013-02-13 04:21:00,32.0,25.0,29.82,SW,222,3.0,6.0,74,0.00,,,0.00,,2013-02-13 09:21:00,
2013-02-13 04:31:00,32.0,25.0,29.82,South,187,2.0,7.0,74,0.00,,,0.00,,2013-02-13 09:31:00,
2013-02-13 04:42:00,31.0,24.0,29.83,SW,226,3.0,5.0,75,0.00,,,0.00,,2013-02-13 09:42:00,
2013-02-13 04:52:00,31.0,24.0,29.83,SW,226,3.0,5.0,75,0.00,,,0.00,,2013-02-13 09:52:00,
2013-02-13 05:01:00,31.0,24.0,29.83,SW,222,2.0,5.0,75,0.00,,,0.00,,2013-02-13 10:01:00,
2013-02-13 05:11:00,31.0,24.0,29.83,SE,145,3.0,6.0,75,0.00,,,0.00,,2013-02-13 10:11:00,
2013-02-13 05:21:00,31.0,24.0,29.83,SE,145,3.0,6.0,75,0.00,,,0.00,,2013-02-13 10:21:00,
2013-02-13 05:32:00,31.0,24.0,29.84,South,172,2.0,7.0,76,0.00,,,0.00,,2013-02-13 10:32:00,
2013-02-13 05:42:00,31.0,24.0,29.84,SW,229,2.0,5.0,75,0.00,,,0.00,,2013-02-13 10:42:00,
2013-02-13 05:52:00,31.0,24.0,29.84,SW,229,2.0,5.0,75,0.00,,,0.00,,2013-02-13 10:52:00,
2013-02-13 06:01:00,31.0,24.0,29.84,SSW,193,2.0,3.0,74,0.00,,,0.00,,2013-02-13 11:01:00,
2013-02-13 06:11:00,31.0,24.0,29.84,SSW,193,2.0,3.0,74,0.00,,,0.00,,2013-02-13 11:11:00,
2013-02-13 06:22:00,30.0,23.0,29.84,South,173,2.0,4.0,76,0.00,,,0.00,,2013-02-13 11:22:00,
2013-02-13 06:32:00,29.0,23.0,29.84,South,180,2.0,4.0,77,0.00,,,0.00,,2013-02-13 11:32:00,
2013-02-13 06:42:00,29.0,23.0,29.84,SSE,163,2.0,4.0,78,0.00,,,0.00,,2013-02-13 11:42:00,
2013-02-13 06:52:00,29.0,23.0,29.84,SSE,163,2.0,4.0,78,0.00,,,0.00,,2013-02-13 11:52:00,
2013-02-13 07:02:00,29.0,23.0,29.84,SE,146,2.0,3.0,79,0.00,,,0.00,,2013-02-13 12:02:00,
2013-02-13 07:11:00,28.0,23.0,29.85,SSE,158,2.0,4.0,80,0.00,,,0.00,,2013-02-13 12:11:00,
2013-02-13 07:22:00,28.0,23.0,29.85,SSE,158,2.0,4.0,80,0.00,,,0.00,,2013-02-13 12:22:00,
2013-02-13 07:32:00,29.0,23.0,29.85,South,191,2.0,4.0,79,0.00,,,0.00,,2013-02-13 12:32:00,
2013-02-13 07:42:00,29.0,23.0,29.85,SSE,159,2.0,3.0,78,0.00,,,0.00,,2013-02-13 12:42:00,
2013-02-13 07:52:00,29.0,23.0,29.85,SSE,159,2.0,3.0,78,0.00,,,0.00,,2013-02-13 12:52:00,
2013-02-13 08:02:00,29.0,23.0,29.85,South,173,2.0,4.0,78,0.00,,,0.00,,2013-02-13 13:02:00,
2013-02-13 08:11:00,29.0,23.0,29.85,South,173,2.0,4.0,78,0.00,,,0.00,,2013-02-13 13:11:00,
2013-02-13 08:21:00,30.0,24.0,29.85,SSW,199,2.0,3.0,78,0.00,,,0.00,,2013-02-13 13:21:00,
2013-02-13 08:32:00,31.0,25.0,29.84,SSE,152,0.0,2.0,77,0.00,,,0.00,,2013-02-13 13:32:00,
2013-02-13 08:42:00,32.0,25.0,29.84,WSW,252,3.0,4.0,74,0.00,,,0.00,,2013-02-13 13:42:00,
2013-02-13 08:52:00,32.0,25.0,29.84,WSW,252,3.0,4.0,74,0.00,,,0.00,,2013-02-13 13:52:00,
2013-02-13 09:01:00,33.0,24.0,29.84,WSW,250,2.0,7.0,70,0.00,,,0.00,,2013-02-13 14:01:00,
2013-02-13 09:11:00,33.0,24.0,29.84,WSW,250,2.0,7.0,70,0.00,,,0.00,,2013-02-13 14:11:00,
2013-02-13 09:21:00,34.0,25.0,29.84,WSW,256,4.0,7.0,68,0.00,,,0.00,,2013-02-13 14:21:00,
2013-02-13 09:32:00,36.0,25.0,29.84,West,269,3.0,10.0,64,0.00,,,0.00,,2013-02-13 14:32:00,
2013-02-13 09:42:00,36.0,24.0,29.84,SW,235,4.0,8.0,62,0.00,,,0.00,,2013-02-13 14:42:00,
2013-02-13 09:52:00,36.0,24.0,29.84,SW,235,4.0,8.0,62,0.00,,,0.00,,2013-02-13 14:52:00,
2013-02-13 10:01:00,37.0,25.0,29.84,NW,313,1.0,12.0,61,0.00,,,0.00,,2013-02-13 15:01:00,
2013-02-13 10:11:00,37.0,24.0,29.84,NNW,346,4.0,14.0,60,0.00,,,0.00,,2013-02-13 15:11:00,
2013-02-13 10:21:00,37.0,24.0,29.84,NNW,346,4.0,14.0,60,0.00,,,0.00,,2013-02-13 15:21:00,
2013-02-13 10:32:00,37.0,24.0,29.83,WNW,301,7.0,13.0,59,0.00,,,0.00,,2013-02-13 15:32:00,
2013-02-13 10:42:00,37.0,24.0,29.83,WNW,301,7.0,13.0,59,0.00,,,0.00,,2013-02-13 15:42:00,
2013-02-13 10:52:00,38.0,25.0,29.82,North,349,4.0,14.0,59,0.00,,,0.00,,2013-02-13 15:52:00,
2013-02-13 11:01:00,39.0,25.0,29.82,SW,236,5.0,9.0,57,0.00,,,0.00,,2013-02-13 16:01:00,
2013-02-13 11:11:00,39.0,24.0,29.81,WNW,293,1.0,8.0,55,0.00,,,0.00,,2013-02-13 16:11:00,
2013-02-13 11:21:00,39.0,24.0,29.81,WNW,293,1.0,8.0,55,0.00,,,0.00,,2013-02-13 16:21:00,
2013-02-13 11:32:00,39.0,24.0,29.81,SW,221,7.0,12.0,54,0.00,,,0.00,,2013-02-13 16:32:00,
2013-02-13 11:42:00,39.0,24.0,29.81,SW,221,7.0,12.0,54,0.00,,,0.00,,2013-02-13 16:42:00,
2013-02-13 11:52:00,40.0,25.0,29.80,WNW,287,3.0,9.0,54,0.00,,,0.00,,2013-02-13 16:52:00,
2013-02-13 12:01:00,40.0,25.0,29.80,NW,314,2.0,7.0,54,0.00,,,0.00,,2013-02-13 17:01:00,
2013-02-13 12:11:00,40.0,25.0,29.80,NW,314,2.0,7.0,54,0.00,,,0.00,,2013-02-13 17:11:00,
2013-02-13 12:21:00,40.0,24.0,29.80,WNW,289,5.0,12.0,53,0.00,,,0.00,,2013-02-13 17:21:00,
2013-02-13 12:32:00,40.0,24.0,29.80,SW,235,6.0,11.0,53,0.00,,,0.00,,2013-02-13 17:32:00,
2013-02-13 12:42:00,40.0,24.0,29.80,SW,235,6.0,11.0,53,0.00,,,0.00,,2013-02-13 17:42:00,
2013-02-13 12:52:00,40.0,24.0,29.80,NW,315,7.0,12.0,53,0.00,,,0.00,,2013-02-13 17:52:00,
2013-02-13 13:02:00,41.0,25.0,29.80,WNW,302,4.0,8.0,53,0.00,,,0.00,,2013-02-13 18:02:00,
2013-02-13 13:11:00,41.0,25.0,29.80,WNW,302,4.0,8.0,53,0.00,,,0.00,,2013-02-13 18:11:00,
2013-02-13 13:23:00,41.0,25.0,29.79,SW,224,1.0,8.0,52,0.00,,,0.00,,2013-02-13 18:23:00,
2013-02-13 13:32:00,41.0,24.0,29.79,West,278,3.0,9.0,51,0.00,,,0.00,,2013-02-13 18:32:00,
2013-02-13 13:42:00,41.0,24.0,29.79,West,278,3.0,9.0,51,0.00,,,0.00,,2013-02-13 18:42:00,
2013-02-13 13:52:00,41.0,24.0,29.78,West,264,4.0,7.0,51,0.00,,,0.00,,2013-02-13 18:52:00,
2013-02-13 14:01:00,41.0,25.0,29.78,West,263,3.0,6.0,52,0.00,,,0.00,,2013-02-13 19:01:00,
2013-02-13 14:11:00,41.0,25.0,29.78,SW,225,2.0,10.0,52,0.00,,,0.00,,2013-02-13 19:11:00,
2013-02-13 14:21:00,41.0,25.0,29.78,SW,225,2.0,10.0,52,0.00,,,0.00,,2013-02-13 19:21:00,
2013-02-13 14:32:00,41.0,25.0,29.78,West,270,2.0,6.0,52,0.00,,,0.00,,2013-02-13 19:32:00,
2013-02-13 14:42:00,41.0,25.0,29.78,West,270,2.0,6.0,52,0.00,,,0.00,,2013-02-13 19:42:00,
2013-02-13 14:52:00,41.0,25.0,29.77,NW,321,5.0,10.0,52,0.00,,,0.00,,2013-02-13 19:52:00,
2013-02-13 15:02:00,41.0,25.0,29.77,WSW,243,2.0,7.0,52,0.00,,,0.00,,2013-02-13 20:02:00,
2013-02-13 15:11:00,41.0,24.0,29.76,WSW,253,2.0,5.0,51,0.00,,,0.00,,2013-02-13 20:11:00,
2013-02-13 15:21:00,41.0,24.0,29.76,WSW,253,2.0,5.0,51,0.00,,,0.00,,2013-02-13 20:21:00,
2013-02-13 15:32:00,42.0,26.0,29.76,NNE,15,2.0,3.0,52,0.00,,,0.00,,2013-02-13 20:32:00,
2013-02-13 15:42:00,41.0,25.0,29.75,WSW,248,0.0,4.0,52,0.00,,,0.00,,2013-02-13 20:42:00,
2013-02-13 15:52:00,41.0,25.0,29.75,WSW,248,0.0,4.0,52,0.00,,,0.00,,2013-02-13 20:52:00,
2013-02-13 16:01:00,41.0,24.0,29.75,WSW,255,2.0,5.0,51,0.00,,,0.00,,2013-02-13 21:01:00,
2013-02-13 16:11:00,41.0,24.0,29.75,WSW,255,2.0,5.0,51,0.00,,,0.00,,2013-02-13 21:11:00,
2013-02-13 16:21:00,42.0,25.0,29.74,West,264,2.0,4.0,51,0.00,,,0.00,,2013-02-13 21:21:00,
2013-02-13 16:31:00,42.0,25.0,29.73,West,273,1.0,2.0,51,0.00,,,0.00,,2013-02-13 21:31:00,
2013-02-13 16:42:00,41.0,25.0,29.75,SW,227,1.0,3.0,53,0.00,,,0.00,,2013-02-13 21:42:00,
2013-02-13 16:52:00,41.0,25.0,29.75,SW,227,1.0,3.0,53,0.00,,,0.00,,2013-02-13 21:52:00,
2013-02-13 17:02:00,41.0,25.0,29.75,SW,226,0.0,1.0,53,0.00,,,0.00,,2013-02-13 22:02:00,
2013-02-13 17:11:00,40.0,26.0,29.75,SW,226,0.0,0.0,57,0.00,,,0.00,,2013-02-13 22:11:00,
2013-02-13 17:21:00,40.0,26.0,29.75,SW,226,0.0,0.0,57,0.00,,,0.00,,2013-02-13 22:21:00,
2013-02-13 17:32:00,38.0,25.0,29.75,SW,226,0.0,0.0,60,0.00,,,0.00,,2013-02-13 22:32:00,
2013-02-13 17:42:00,38.0,25.0,29.75,SW,226,0.0,0.0,60,0.00,,,0.00,,2013-02-13 22:42:00,
2013-02-13 17:52:00,36.0,25.0,29.75,SW,226,0.0,0.0,64,0.00,,,0.00,,2013-02-13 22:52:00,
2013-02-13 18:01:00,35.0,26.0,29.74,SW,226,0.0,0.0,69,0.00,,,0.00,,2013-02-13 23:01:00,
2013-02-13 18:11:00,34.0,26.0,29.75,SSE,159,1.0,1.0,72,0.00,,,0.00,,2013-02-13 23:11:00,
2013-02-13 18:22:00,34.0,26.0,29.75,SSE,159,1.0,1.0,72,0.00,,,0.00,,2013-02-13 23:22:00,
2013-02-13 18:32:00,33.0,25.0,29.74,SSE,150,0.0,0.0,73,0.00,,,0.00,,2013-02-13 23:32:00,
2013-02-13 18:42:00,33.0,25.0,29.74,SSE,150,0.0,0.0,73,0.00,,,0.00,,2013-02-13 23:42:00,
2013-02-13 18:52:00,32.0,25.0,29.74,SSE,150,0.0,0.0,74,0.00,,,0.00,,2013-02-13 23:52:00,
2013-02-13 19:02:00,32.0,25.0,29.75,SSE,150,0.0,0.0,75,0.00,,,0.00,,2013-02-14 00:02:00,
2013-02-13 19:11:00,32.0,25.0,29.75,SSE,150,0.0,0.0,75,0.00,,,0.00,,2013-02-14 00:11:00,
2013-02-13 19:22:00,32.0,25.0,29.75,SSE,148,0.0,0.0,75,0.00,,,0.00,,2013-02-14 00:22:00,
2013-02-13 19:32:00,32.0,25.0,29.74,SSE,150,0.0,0.0,75,0.00,,,0.00,,2013-02-14 00:32:00,
2013-02-13 19:42:00,32.0,25.0,29.74,SSE,150,0.0,0.0,75,0.00,,,0.00,,2013-02-14 00:42:00,
2013-02-13 19:52:00,31.0,25.0,29.74,SSE,149,0.0,0.0,77,0.00,,,0.00,,2013-02-14 00:52:00,
2013-02-13 20:01:00,31.0,25.0,29.75,SSE,148,0.0,0.0,77,0.00,,,0.00,,2013-02-14 01:01:00,
2013-02-13 20:11:00,31.0,25.0,29.75,SSE,148,0.0,0.0,77,0.00,,,0.00,,2013-02-14 01:11:00,
2013-02-13 20:21:00,31.0,26.0,29.74,SSE,148,0.0,0.0,80,0.00,,,0.00,,2013-02-14 01:21:00,
2013-02-13 20:32:00,31.0,25.0,29.73,SSE,148,0.0,0.0,79,0.00,,,0.00,,2013-02-14 01:32:00,
2013-02-13 20:41:00,31.0,25.0,29.73,SSE,148,0.0,0.0,79,0.00,,,0.00,,2013-02-14 01:41:00,
2013-02-13 20:52:00,30.0,25.0,29.74,SSE,149,0.0,0.0,82,0.00,,,0.00,,2013-02-14 01:52:00,
2013-02-13 21:02:00,30.0,25.0,29.75,SSE,155,0.0,0.0,82,0.00,,,0.00,,2013-02-14 02:02:00,
2013-02-13 21:11:00,31.0,26.0,29.74,South,170,0.0,0.0,81,0.00,,,0.00,,2013-02-14 02:11:00,
2013-02-13 21:21:00,31.0,26.0,29.74,South,170,0.0,0.0,81,0.00,,,0.00,,2013-02-14 02:21:00,
2013-02-13 21:32:00,30.0,25.0,29.73,South,171,0.0,0.0,82,0.00,,,0.00,,2013-02-14 02:32:00,
2013-02-13 21:42:00,30.0,25.0,29.73,South,171,0.0,0.0,82,0.00,,,0.00,,2013-02-14 02:42:00,
2013-02-13 21:52:00,30.0,25.0,29.73,South,171,0.0,0.0,82,0.00,,,0.00,,2013-02-14 02:52:00,
2013-02-13 22:02:00,30.0,25.0,29.72,South,171,0.0,0.0,83,0.00,,,0.00,,2013-02-14 03:02:00,
2013-02-13 22:11:00,31.0,26.0,29.72,South,170,0.0,0.0,82,0.00,,,0.00,,2013-02-14 03:11:00,
2013-02-13 22:22:00,31.0,26.0,29.72,South,170,0.0,0.0,82,0.00,,,0.00,,2013-02-14 03:22:00,
2013-02-13 22:32:00,31.0,26.0,29.72,South,171,0.0,0.0,83,0.00,,,0.00,,2013-02-14 03:32:00,
2013-02-13 22:42:00,31.0,26.0,29.72,South,171,0.0,0.0,83,0.00,,,0.00,,2013-02-14 03:42:00,
2013-02-13 22:52:00,31.0,26.0,29.72,South,170,0.0,0.0,82,0.00,,,0.00,,2013-02-14 03:52:00,
2013-02-13 23:01:00,31.0,26.0,29.72,South,171,0.0,0.0,82,0.00,,,0.00,,2013-02-14 04:01:00,
2013-02-13 23:12:00,32.0,27.0,29.71,South,170,0.0,0.0,81,0.00,,,0.00,,2013-02-14 04:12:00,
2013-02-13 23:21:00,32.0,27.0,29.71,South,170,0.0,0.0,81,0.00,,,0.00,,2013-02-14 04:21:00,
2013-02-13 23:32:00,31.0,26.0,29.71,South,170,0.0,0.0,82,0.00,,,0.00,,2013-02-14 04:32:00,
2013-02-13 23:42:00,31.0,26.0,29.71,South,170,0.0,0.0,82,0.00,,,0.00,,2013-02-14 04:42:00,
2013-02-13 23:52:00,31.0,26.0,29.71,South,169,0.0,0.0,83,0.00,,,0.00,,2013-02-14 04:52:00,